Location: Unspecified
(0.0000°N, 0.0000°E)
Time: 05:53:37
(UTC+02:00)

Cosmos 1300 - Visible Passes

Search period start: 23 July 2014 00:00
Search period end: 02 August 2014 00:00
Orbit: 531 x 533 km, 82.5° (Epoch: 22 July)

Date Brightness Start Highest point End Pass type
(mag) Time Alt. Az. Time Alt. Az. Time Alt. Az.
23 Jul 5.9 07:36:01 10° SE 07:38:00 14° E 07:39:58 10° ENE visible
23 Jul 5.7 21:06:10 10° NW 21:08:46 17° W 21:11:24 10° SW visible
24 Jul 6.0 07:26:25 10° ESE 07:28:09 13° E 07:29:52 10° ENE visible
24 Jul 5.7 20:56:10 10° NW 20:58:55 19° W 21:01:41 10° SW visible
25 Jul 6.1 07:16:53 10° ESE 07:18:17 12° E 07:19:42 10° ENE visible
25 Jul 5.7 20:46:11 10° NW 20:49:04 20° W 20:51:58 10° SW visible
26 Jul 6.2 07:07:27 10° ESE 07:08:26 11° E 07:09:25 10° E visible
26 Jul 5.6 20:36:13 10° NW 20:39:13 21° W 20:42:14 10° SW visible
01 Aug 3.5 07:41:32 10° SSW 07:45:02 31° W 07:48:30 10° NNW visible
